AXM192 WMKK-WMKP

Flight info

Callsign AXM192
Flight time 0h 34m
Altitude 24000
Route ATIMU1E ATIMU DCT TEPUS GORVU1E
Aircraft A320/M-SDE3FGHIRWY/LB1

Departure

Time 2026-05-07 11:36
Airport Kuala Lumpur International Airport (WMKK)

Arrival

Time 2026-05-07 12:10
Airport Penang International Airport (WMKP)
Time Latitude Longitude Altitude Speed Heading
2026-05-07 10:40 2.74278 101.69234 42 ft 0 kts 146°
2026-05-07 11:21 2.74283 101.69231 42 ft 4 kts 146°
2026-05-07 11:22 2.74305 101.69216 42 ft 4 kts 146°
2026-05-07 11:22 2.74327 101.69200 42 ft 4 kts 133°
2026-05-07 11:22 2.74340 101.69178 42 ft 4 kts 97°
2026-05-07 11:22 2.74340 101.69163 40 ft 3 kts 59°
2026-05-07 11:23 2.74336 101.69157 42 ft 0 kts 56°
2026-05-07 11:25 2.74340 101.69163 40 ft 7 kts 58°
2026-05-07 11:26 2.74382 101.69233 40 ft 11 kts 58°
2026-05-07 11:26 2.74423 101.69292 45 ft 12 kts 54°
2026-05-07 11:26 2.74453 101.69360 46 ft 9 kts 94°
2026-05-07 11:26 2.74427 101.69404 47 ft 7 kts 105°
2026-05-07 11:27 2.74440 101.69437 51 ft 8 kts 59°
2026-05-07 11:27 2.74444 101.69514 51 ft 14 kts 143°
2026-05-07 11:27 2.74370 101.69562 53 ft 13 kts 146°
2026-05-07 11:27 2.74298 101.69611 52 ft 11 kts 146°
2026-05-07 11:28 2.74286 101.69667 55 ft 8 kts 56°
2026-05-07 11:28 2.74307 101.69699 54 ft 4 kts 58°
2026-05-07 11:28 2.74356 101.69774 54 ft 17 kts 54°
2026-05-07 11:28 2.74426 101.69870 54 ft 18 kts 53°
2026-05-07 11:29 2.74408 101.69972 52 ft 17 kts 144°
2026-05-07 11:29 2.74301 101.70043 53 ft 20 kts 146°
2026-05-07 11:29 2.74183 101.70122 53 ft 21 kts 146°
2026-05-07 11:29 2.74053 101.70209 53 ft 24 kts 146°
2026-05-07 11:30 2.73908 101.70305 55 ft 26 kts 146°
2026-05-07 11:30 2.73757 101.70408 52 ft 27 kts 146°
2026-05-07 11:30 2.73599 101.70513 58 ft 27 kts 146°
2026-05-07 11:30 2.73440 101.70620 57 ft 28 kts 146°
2026-05-07 11:31 2.73274 101.70730 58 ft 29 kts 146°
2026-05-07 11:31 2.73100 101.70848 54 ft 31 kts 147°
2026-05-07 11:31 2.72918 101.70970 53 ft 32 kts 146°
2026-05-07 11:31 2.72731 101.71096 53 ft 32 kts 146°
2026-05-07 11:32 2.72362 101.71343 52 ft 31 kts 146°
2026-05-07 11:32 2.72176 101.71465 53 ft 32 kts 146°
2026-05-07 11:32 2.71987 101.71593 53 ft 34 kts 146°
2026-05-07 11:33 2.71792 101.71725 52 ft 34 kts 146°
2026-05-07 11:33 2.71598 101.71854 49 ft 24 kts 148°
2026-05-07 11:33 2.71487 101.71928 54 ft 19 kts 144°
2026-05-07 11:33 2.71418 101.71918 55 ft 5 kts 235°
2026-05-07 11:34 2.71406 101.71901 56 ft 0 kts 234°
2026-05-07 11:34 2.71403 101.71896 51 ft 6 kts 233°
2026-05-07 11:34 2.71374 101.71856 56 ft 7 kts 236°
2026-05-07 11:35 2.71367 101.71780 48 ft 13 kts 308°
2026-05-07 11:35 2.71417 101.71746 56 ft 0 kts 326°
2026-05-07 11:35 2.71418 101.71745 56 ft 0 kts 326°
2026-05-07 11:35 2.71432 101.71736 49 ft 13 kts 326°
2026-05-07 11:36 2.71743 101.71528 55 ft 90 kts 326°
2026-05-07 11:36 2.72430 101.71066 52 ft 146 kts 326°
2026-05-07 11:36 2.73387 101.70420 252 ft 173 kts 326°
2026-05-07 11:36 2.74373 101.69777 1041 ft 169 kts 327°
2026-05-07 11:37 2.75369 101.69118 1641 ft 174 kts 325°
2026-05-07 11:37 2.76365 101.68419 2223 ft 176 kts 322°
2026-05-07 11:37 2.77216 101.67560 2846 ft 174 kts 307°
2026-05-07 11:37 2.77911 101.66545 3368 ft 178 kts 303°
2026-05-07 11:38 2.78670 101.65509 3719 ft 195 kts 309°
2026-05-07 11:38 2.79577 101.64387 3937 ft 220 kts 309°
2026-05-07 11:38 2.80614 101.63135 4239 ft 249 kts 310°
2026-05-07 11:38 2.81778 101.61745 4611 ft 271 kts 310°
2026-05-07 11:39 2.83017 101.60278 5320 ft 279 kts 310°
2026-05-07 11:39 2.84277 101.58784 6120 ft 283 kts 310°
2026-05-07 11:39 2.85553 101.57270 6934 ft 286 kts 310°
2026-05-07 11:39 2.86864 101.55757 7701 ft 290 kts 315°
2026-05-07 11:40 2.88438 101.54481 8449 ft 294 kts 324°
2026-05-07 11:40 2.90111 101.53290 9199 ft 297 kts 324°
2026-05-07 11:40 2.91800 101.52084 9912 ft 300 kts 324°
2026-05-07 11:40 2.93522 101.50856 10358 ft 312 kts 325°
2026-05-07 11:41 2.95356 101.49546 10524 ft 336 kts 325°
2026-05-07 11:41 2.97312 101.48144 10649 ft 358 kts 324°
2026-05-07 11:41 2.99389 101.46654 10879 ft 374 kts 325°
2026-05-07 11:41 3.01526 101.45125 11405 ft 381 kts 325°
2026-05-07 11:42 3.03693 101.43578 12018 ft 385 kts 325°
2026-05-07 11:42 3.05883 101.42015 12631 ft 388 kts 325°
2026-05-07 11:42 3.08088 101.40439 13232 ft 391 kts 325°
2026-05-07 11:42 3.10313 101.38847 13803 ft 395 kts 325°
2026-05-07 11:43 3.12556 101.37239 14368 ft 398 kts 325°
2026-05-07 11:43 3.14816 101.35615 14909 ft 402 kts 325°
2026-05-07 11:43 3.17096 101.33978 15439 ft 405 kts 325°
2026-05-07 11:43 3.19397 101.32331 15941 ft 408 kts 325°
2026-05-07 11:44 3.21717 101.30670 16431 ft 411 kts 325°
2026-05-07 11:44 3.24052 101.29000 16910 ft 414 kts 325°
2026-05-07 11:44 3.26404 101.27315 17371 ft 417 kts 325°
2026-05-07 11:44 3.28770 101.25619 17825 ft 420 kts 325°
2026-05-07 11:45 3.31149 101.23916 18222 ft 421 kts 326°
2026-05-07 11:45 3.33542 101.22205 18601 ft 425 kts 325°
2026-05-07 11:45 3.35957 101.20477 19007 ft 428 kts 325°
2026-05-07 11:45 3.38385 101.18738 19405 ft 431 kts 325°
2026-05-07 11:46 3.40832 101.16987 19799 ft 434 kts 325°
2026-05-07 11:46 3.43295 101.15225 20181 ft 436 kts 325°
2026-05-07 11:46 3.45772 101.13456 20560 ft 438 kts 325°
2026-05-07 11:46 3.48265 101.11674 20901 ft 441 kts 325°
2026-05-07 11:47 3.50769 101.09879 21252 ft 444 kts 325°
2026-05-07 11:47 3.53286 101.08073 21595 ft 447 kts 325°
2026-05-07 11:47 3.55819 101.06254 21928 ft 449 kts 325°
2026-05-07 11:47 3.58362 101.04426 22248 ft 452 kts 325°
2026-05-07 11:48 3.60921 101.02587 22559 ft 454 kts 325°
2026-05-07 11:48 3.63492 101.00742 22858 ft 457 kts 325°
2026-05-07 11:48 3.66093 100.98903 23136 ft 458 kts 328°
2026-05-07 11:48 3.68878 100.97354 23415 ft 459 kts 336°
2026-05-07 11:49 3.71798 100.96049 23680 ft 461 kts 337°
2026-05-07 11:49 3.74735 100.94743 23771 ft 465 kts 337°
2026-05-07 11:49 3.77715 100.93419 23787 ft 472 kts 337°
2026-05-07 11:49 3.80740 100.92076 23787 ft 479 kts 337°
2026-05-07 11:50 3.83791 100.90721 23786 ft 481 kts 337°
2026-05-07 11:50 3.86859 100.89358 23785 ft 482 kts 337°
2026-05-07 11:50 3.89928 100.87995 23788 ft 482 kts 337°
2026-05-07 11:50 3.92996 100.86632 23785 ft 482 kts 337°
2026-05-07 11:51 3.96021 100.85285 23786 ft 482 kts 337°
2026-05-07 11:51 3.99086 100.83918 23785 ft 482 kts 337°
2026-05-07 11:51 4.02151 100.82550 23786 ft 482 kts 337°
2026-05-07 11:51 4.05215 100.81182 23787 ft 482 kts 337°
2026-05-07 11:52 4.08279 100.79815 23785 ft 482 kts 337°
2026-05-07 11:52 4.11378 100.78435 23568 ft 490 kts 337°
2026-05-07 11:52 4.14505 100.77046 23323 ft 492 kts 337°
2026-05-07 11:52 4.17625 100.75658 22734 ft 489 kts 337°
2026-05-07 11:53 4.20726 100.74287 21625 ft 480 kts 337°
2026-05-07 11:53 4.23715 100.72978 20775 ft 459 kts 337°
2026-05-07 11:53 4.26593 100.71729 19934 ft 442 kts 338°
2026-05-07 11:53 4.29384 100.70524 19122 ft 435 kts 338°
2026-05-07 11:54 4.32151 100.69333 18330 ft 430 kts 338°
2026-05-07 11:54 4.34884 100.68148 17574 ft 428 kts 338°
2026-05-07 11:54 4.37611 100.66961 16816 ft 426 kts 338°
2026-05-07 11:54 4.40323 100.65777 16079 ft 425 kts 338°
2026-05-07 11:55 4.43025 100.64598 15371 ft 422 kts 337°
2026-05-07 11:55 4.45708 100.63426 14683 ft 420 kts 337°
2026-05-07 11:55 4.48375 100.62260 14013 ft 416 kts 337°
2026-05-07 11:55 4.51015 100.61107 13358 ft 412 kts 337°
2026-05-07 11:56 4.53631 100.59968 12719 ft 408 kts 337°
2026-05-07 11:56 4.56220 100.58837 12088 ft 404 kts 337°
2026-05-07 11:56 4.58776 100.57714 11450 ft 397 kts 337°
2026-05-07 11:56 4.61287 100.56622 11053 ft 387 kts 337°
2026-05-07 11:57 4.63706 100.55573 10922 ft 370 kts 337°
2026-05-07 11:57 4.66019 100.54564 10800 ft 355 kts 337°
2026-05-07 11:57 4.68235 100.53598 10666 ft 341 kts 337°
2026-05-07 11:57 4.70368 100.52667 10546 ft 328 kts 337°
2026-05-07 11:58 4.72426 100.51769 10415 ft 317 kts 337°
2026-05-07 11:58 4.74417 100.50900 10208 ft 309 kts 337°
2026-05-07 11:58 4.76366 100.50048 9959 ft 303 kts 337°
2026-05-07 11:58 4.78290 100.49210 9823 ft 301 kts 337°
2026-05-07 11:59 4.80207 100.48374 9697 ft 300 kts 336°
2026-05-07 11:59 4.82025 100.47351 9569 ft 300 kts 323°
2026-05-07 11:59 4.83536 100.45916 9390 ft 301 kts 309°
2026-05-07 11:59 4.84803 100.44256 9019 ft 299 kts 307°
2026-05-07 12:00 4.86059 100.42600 8622 ft 298 kts 307°
2026-05-07 12:00 4.87314 100.40955 8220 ft 296 kts 307°
2026-05-07 12:00 4.88565 100.39319 7816 ft 295 kts 307°
2026-05-07 12:00 4.89809 100.37693 7422 ft 293 kts 308°
2026-05-07 12:01 4.91043 100.36077 7032 ft 291 kts 307°
2026-05-07 12:01 4.92265 100.34472 6708 ft 288 kts 307°
2026-05-07 12:01 4.93473 100.32881 6409 ft 286 kts 307°
2026-05-07 12:01 4.94675 100.31301 6102 ft 284 kts 307°
2026-05-07 12:02 4.95871 100.29730 5806 ft 283 kts 307°
2026-05-07 12:02 4.97059 100.28165 5505 ft 281 kts 307°
2026-05-07 12:02 4.98244 100.26608 5205 ft 280 kts 307°
2026-05-07 12:02 4.99425 100.25060 4915 ft 279 kts 307°
2026-05-07 12:03 5.00602 100.23514 4609 ft 278 kts 307°
2026-05-07 12:03 5.01770 100.21975 4324 ft 277 kts 307°
2026-05-07 12:03 5.02935 100.20443 4033 ft 276 kts 308°
2026-05-07 12:03 5.04272 100.19087 3786 ft 271 kts 323°
2026-05-07 12:04 5.05851 100.18155 3687 ft 257 kts 333°
2026-05-07 12:04 5.07399 100.17347 3575 ft 245 kts 332°
2026-05-07 12:04 5.08867 100.16579 3477 ft 233 kts 332°
2026-05-07 12:04 5.10272 100.15839 3372 ft 224 kts 332°
2026-05-07 12:05 5.11612 100.15133 3265 ft 210 kts 332°
2026-05-07 12:05 5.12492 100.14748 3212 ft 207 kts 344°
2026-05-07 12:05 5.13835 100.14574 3130 ft 185 kts
2026-05-07 12:05 5.15037 100.14808 2992 ft 170 kts 20°
2026-05-07 12:06 5.16050 100.15343 2845 ft 161 kts 37°
2026-05-07 12:06 5.16893 100.16071 2702 ft 158 kts 42°
2026-05-07 12:06 5.17695 100.16798 2579 ft 154 kts 43°
2026-05-07 12:06 5.18473 100.17506 2436 ft 150 kts 43°
2026-05-07 12:07 5.19239 100.18198 2385 ft 149 kts 42°
2026-05-07 12:07 5.20006 100.18891 2237 ft 148 kts 43°
2026-05-07 12:07 5.20773 100.19586 2074 ft 149 kts 43°
2026-05-07 12:07 5.21781 100.20498 1820 ft 146 kts 42°
2026-05-07 12:08 5.22290 100.20960 1689 ft 146 kts 42°
2026-05-07 12:08 5.23044 100.21641 1502 ft 146 kts 41°
2026-05-07 12:08 5.23794 100.22320 1306 ft 145 kts 42°
2026-05-07 12:08 5.24555 100.23010 1109 ft 149 kts 42°
2026-05-07 12:09 5.25325 100.23707 914 ft 149 kts 42°
2026-05-07 12:09 5.26096 100.24405 715 ft 149 kts 41°
2026-05-07 12:09 5.26865 100.25102 514 ft 149 kts 42°
2026-05-07 12:09 5.27632 100.25799 311 ft 149 kts 42°
2026-05-07 12:10 5.28398 100.26493 122 ft 148 kts 41°
2026-05-07 12:10 5.29112 100.27149 28 ft 127 kts 43°
2026-05-07 12:10 5.29641 100.27615 24 ft 68 kts 41°
2026-05-07 12:10 5.29765 100.27725 25 ft 11 kts 43°
2026-05-07 12:11 5.29867 100.27797 27 ft 21 kts 19°
2026-05-07 12:11 5.30009 100.27835 24 ft 10 kts 10°
2026-05-07 12:11 5.30051 100.27843 24 ft 19 kts 13°
2026-05-07 12:11 5.30133 100.27815 23 ft 6 kts 247°
2026-05-07 12:12 5.30091 100.27770 23 ft 14 kts 224°
2026-05-07 12:12 5.30018 100.27699 23 ft 20 kts 223°
2026-05-07 12:12 5.29890 100.27582 25 ft 26 kts 222°
2026-05-07 12:12 5.29749 100.27454 23 ft 28 kts 222°
2026-05-07 12:13 5.29601 100.27319 23 ft 30 kts 222°
2026-05-07 12:13 5.29449 100.27183 23 ft 29 kts 223°
2026-05-07 12:13 5.29340 100.27051 23 ft 19 kts 271°
2026-05-07 12:13 5.29378 100.27003 23 ft 9 kts 308°
2026-05-07 12:14 5.29391 100.26940 23 ft 11 kts 242°
2026-05-07 12:14 5.29332 100.26884 23 ft 12 kts 222°
2026-05-07 12:14 5.29262 100.26822 23 ft 14 kts 220°
2026-05-07 12:14 5.29183 100.26753 23 ft 16 kts 220°
2026-05-07 12:15 5.29194 100.26680 23 ft 10 kts 314°
2026-05-07 12:15 5.29220 100.26651 23 ft 0 kts 311°